Overview Statistics Trail Chart Weather Telemetry Raw packets
 

This is the latest recevied weather packets stored in our database for station/object VE3EP-1. If no packets are shown the sender has not sent any weather packets the latest 10 day(s).

<< 38 39 40 41 42 >>
Time Temp. Humidity Pressure Rain* Wind** Luminosity Snow
1787807047 21.11° C 80% 1015.1 hPa 0 mm - - -
1787805847 21.11° C 79% 1015.2 hPa 0 mm - - -
1787805247 21.11° C 79% 1015.2 hPa 0 mm - - -
1787804047 21.11° C 78% 1015.4 hPa 0 mm - - -
1787803447 21.11° C 78% 1015.4 hPa 0 mm - - -
1787802847 21.11° C 77% 1015.2 hPa 0 mm - - -
1787799248 21.11° C 81% 1016.1 hPa 0 mm - - -
1787797449 21.11° C 83% 1016.1 hPa 0 mm - - -
1787796848 21.11° C 84% 1016.4 hPa 0 mm - - -
1787794449 20.56° C 84% 1016.7 hPa 0 mm - - -
1787793250 20° C 82% 1016.9 hPa 0 mm - - -
1787792648 20° C 82% 1016.8 hPa 0 mm - - -
1787792048 20° C 83% 1016.7 hPa 0 mm - - -
1787791447 20° C 84% 1017.1 hPa 0 mm - - -
1787790847 20° C 85% 1016.7 hPa 0 mm - - -
1787790247 20° C 84% 1016.6 hPa 0 mm - - -
1787789649 20° C 83% 1016.7 hPa 0 mm - - -
1787789050 20.56° C 81% 1016.6 hPa 0 mm - - -
1787788448 20.56° C 80% 1016.7 hPa 0 mm - - -
1787787848 21.11° C 79% 1016.7 hPa 0 mm - - -
1787787248 21.67° C 77% 1016.8 hPa 0 mm - - -
1787786648 22.22° C 75% 1017.1 hPa 0 mm - - -
1787786048 22.22° C 73% 1017.2 hPa 0 mm - - -
1787785448 22.78° C 70% 1017.2 hPa 0 mm - - -
1787784850 23.33° C 67% 1017 hPa 0 mm - - -

* Rain latest hour (hover to see other rain measurements)
** Current wind speed in m/s (hover to see current wind gust speed)